Regional Weather Roundup
Issued by NWS Wakefield, VA

Home | Current Version | Previous Version | Graphics & Text | Print | Product List | Glossary On
Versions: 1 2 3 4 5 6 7 8 9 10 11 12 13 14 15 16 17 18 19 20 21 22 23 24 25 26 27 28 29 30 31 32 33 34 35 36 37 38 39 40 41 42 43 44 45 46 47 48 49 50
000
ASUS41 KAKQ 160315
RWRAKQ

REGIONAL WEATHER ROUNDUP
NATIONAL WEATHER SERVICE WAKEFIELD VA
1000 PM EST SUN JAN 15 2017

Note: "fair" indicates few or no clouds below 12,000 feet with no
significant weather and/or obstructions to visibility. * = Denotes
station may not report precipitation (e.g., rain,snow,etc.),
thunder or fog.

VAZ042-051-052>054-056-160400-
NORTHERN VIRGINIA

CITY           SKY/WX    TMP DP  RH WIND       PRES   REMARKS
WASH NATIONAL  CLOUDY    41  28  60 SE3       30.43S
DULLES         CLOUDY    38  22  52 NE7       30.41R
FORT BELVOIR   CLOUDY    38  26  62 CALM      30.42R
QUANTICO       CLOUDY    41  30  65 CALM      30.44R
FREDERICKSBRG* CLOUDY    42  31  66 CALM      30.42R
STAFFORD*      LGT RAIN  38  33  81 CALM      30.46R
WARRENTON      CLOUDY    40  28  62 CALM      30.41R
CULPEPER*      CLOUDY    40  30  68 CALM      30.42S
MANASSAS*      CLOUDY   N/A N/A N/A CALM      30.42S
LEESBURG*      CLOUDY    39  27  60 MISG      30.41F
WINCHESTER     CLOUDY    36  25  64 CALM      30.39S
FRONT ROYAL*   NOT AVBL
LURAY*         DRIZZLE   37  30  75 NE8       30.37R
$$

VAZ048-049-060>072-079>083-160400-
CENTRAL AND SOUTH CENTRAL VIRGINIA

CITY           SKY/WX    TMP DP  RH WIND       PRES   REMARKS
RICHMOND       CLOUDY    43  26  51 CALM      30.41R
CHESTERFIELD*  CLOUDY    45  18  33 CALM      30.42R
PETERSBURG*    CLOUDY    43  30  61 CALM      30.41S
HANOVER        CLOUDY    42  30  62 CALM      30.42R
TAPPAHANNOCK*  CLOUDY    40  23  50 CALM      30.42R
QUINTON*       CLOUDY    42  24  48 CALM      30.40R
CHARLOTTSVILLE CLOUDY    42  40  92 CALM      30.39R
GORDONSVILLE*  CLOUDY    41  39  94 CALM      30.40R
ORANGE*        DRIZZLE   41  41 100 CALM      30.41S
LOUISA*        CLOUDY    46  41  81 CALM      30.39S
BUMPASS*       CLOUDY    41  39  93 CALM      30.40R
FARMVILLE*     CLOUDY    44  39  83 NE3       30.38S
CREWE*         CLOUDY    42  42 100 CALM      30.39R
FORT PICKETT*  CLOUDY    44  28  53 CALM      30.39R
CHASE CITY*    CLOUDY    45  31  58 CALM      30.38R
CLARKSVILLE*   CLOUDY    45  32  61 E5        30.37S
SOUTH HILL*    CLOUDY    44  31  59 CALM      30.44F
LAWRENCEVILLE* CLOUDY    45  28  52 MISG      30.38S
EMPORIA*       CLOUDY    43  30  61 CALM      30.42S
$$

VAZ088>098-160400-
SOUTHEAST VIRGINIA

CITY           SKY/WX    TMP DP  RH WIND       PRES   REMARKS
NORFOLK        CLOUDY    41  34  76 CALM      30.40R
VIRGINIA BEACH CLOUDY    38  33  82 CALM      30.40S
NORFOLK NAVAL  CLOUDY    42  32  67 CALM      30.43R
WEST POINT*    CLOUDY    41  28  60 CALM      30.43R
SALUDA*        MOCLDY    40  29  64 CALM      30.40S
NEWPORT NEWS   CLOUDY    41  31  67 CALM      30.41R
LANGLEY AFB    CLOUDY    41  31  67 CALM      30.40S
FORT EUSTIS    CLOUDY    42  24  50 CALM      30.39R
WILLIAMSBURG*  CLOUDY    43  30  61 CALM      30.42R
HR EXEC AP*    CLOUDY    37  32  81 CALM      30.40S
FRANKLIN*      CLOUDY    41  26  57 CALM      30.41F
US460-WAKEFLD  CLOUDY    42  29  59 CALM      30.41S
$$

VAZ020-022-025-037-045-160400-
WEST CENTRAL AND SOUTHWEST VIRGINIA

CITY           SKY/WX    TMP DP  RH WIND       PRES   REMARKS
STAUNTON*      LGT RAIN  40  38  93 S3        30.36F
WAYNESBORO*    CLOUDY    39  38  96 E3        30.34S
HOT SPRINGS VA LGT RAIN  41  41 100 CALM      30.27S VSB 1/2
LYNCHBURG      LGT RAIN  41  40  96 NE3       30.39R FOG
DANVILLE       CLOUDY    48  37  65 E6        30.37R
SOUTH BOSTON*  CLOUDY    47  34  61 E3        30.37F
MARTINSVILLE   CLOUDY    49  40  73 E3        30.37S
ROANOKE        LGT RAIN  44  43  96 E3        30.38R FOG
BLACKSBURG     HVY RAIN  44  44 100 E7        30.35R
DUBLIN*        DRIZZLE   46  46 100 NE6       30.32S
MARION*        LGT RAIN  55  54  96 W8        30.31S
HILLSVILLE*    CLOUDY    46  46  99 CALM      30.29S
RICHLANDS*     FOG      N/A N/A N/A SW3       30.28F VSB<1/4
WISE*          CLOUDY    50  50 100 CALM      30.30S FOG
ABINGDON*      CLOUDY    56  56 100 W5        30.30R
$$

MDZ021>025-VAZ099-100-160400-
SOUTHERN MARYLAND AND THE DELMARVA PENINSULA

CITY           SKY/WX    TMP DP  RH WIND       PRES   REMARKS
PATUXENT RIVER CLOUDY    39  29  67 CALM      30.42R
BAY BRIDGE APT CLOUDY    37  32  81 CALM      30.43S
LEONARDTOWN    CLOUDY    36  32  87 CALM      30.44S
DOVER          CLOUDY    35  30  82 N5        30.41S
GEORGETOWN     CLOUDY    38  28  67 NW3       30.43R
EASTON         CLEAR     39  28  65 N3        30.46R
CAMBRIDGE      CLOUDY    36  32  87 CALM      30.42R
SALISBURY      CLOUDY    38  29  70 N3        30.42R
OCEAN CITY     CLOUDY    37  34  89 N5        30.42S
WALLOPS ISLAND CLOUDY    39  33  79 CALM      30.42S
ACCOMACK*      CLOUDY    38  35  85 CALM      30.40F
$$

NCZ012>017-030>032-160400-
NORTH CENTRAL AND EASTERN NORTH CAROLINA

CITY           SKY/WX    TMP DP  RH WIND       PRES   REMARKS
ROANOKE RAPIDS CLOUDY    45  32  61 E3        30.39S
RALEIGH        CLOUDY    46  43  89 NE3       30.36S
ELIZABETH CITY CLEAR     38  36  92 NE3       30.40F
AHOSKIE*         N/A     43  31  62 CALM      30.41S
EDENTON*       CLOUDY    43  39  84 CALM      30.40F
CURRITUCK*     CLEAR     38  38 100 CALM      30.41S
KILL DEVIL HLS NOT AVBL
MANTEO         CLEAR     41  38  89 N3        30.39F
CAPE HATTERAS  PTCLDY    45  40  82 N10G16    30.37S HAZE
TARBORO*       NOT AVBL
GOLDSBORO      CLOUDY    48  44  86 E6        30.35R
WASHINGTON     CLOUDY    42  38  88 NE6       30.40R
GREENVILLE     CLOUDY    46  41  81 E3        30.39S
NEW BERN       CLOUDY    43  39  86 NE6       30.38S
WILMINGTON     CLOUDY    50  45  83 E9        30.35S
$$

VAZ048-160400-
ELSEWHERE

CITY           SKY/WX    TMP DP  RH WIND       PRES   REMARKS
HARRISBURG PA  CLOUDY    27  21  78 NE3       30.42R
BALTIMORE      CLOUDY    36  28  73 E5        30.42R
ANNAPOLIS      CLOUDY    39  32  76 CALM      30.42R
ANDREWS AFB    CLOUDY    37  25  61 CALM      30.41R
PHILADELPHIA   CLOUDY    33  20  58 N8        30.44R
HENDERSON NC   CLOUDY    44  30  57 E7        30.37S
GREENSBORO     CLOUDY    49  47  93 E7        30.33R
ROCKY MOUNT    CLOUDY    47  38  71 VRB3      30.38R
$$

VAZ100-160400-
MARINE

STATION/POSITION TIME  TEMP    WIND        PRES    WAVE   SWELL
                       AIR SEA DIR/SP/G            HT/PER HT/PER
                 (UTC) (F)     (DEG/KT/KT) (MB)    (FT/S) (FT/S)
CAPE MAY NJ      0248   36 40   20/  2/  4 1029.9R
LEWES DE         0236   40 41   10/ 10/ 12 1030.0R
OCEAN-CITY-INLET 0236   39 42   10/  3/  4 1030.3R
WACHAPREAGUE VA  0242   39 44  330/  1/  2 1029.6F
THOMAS POINT MD  0300   38 39  360/  3/  3   N/A
GOOSES REEF MD   0250   39     360/  4/  4 1030.8R
COVE POINT MD    0242   38     360/  3/  3 1030.8R
SOLOMONS ISLAND  0242   39 41  330/  3/  3   N/A
BISHOPS HEAD MD  0248   39 41   10/  3/  5 1030.4R
PINEY POINT MD   0248           20/  3/  3   N/A
POTOMAC MD       0250   40     320/  2/  4 1029.4R
CAMBRIDGE MD     0248   38 38   CALM  /  1 1029.6R
LEWISETTA VA     0242   40 42   60/  1/  2 1029.8S
RAPPAHANNOCK LGT 0248          340/  7/  8 1030.6R
STINGRAY PT      0250   40      30/  6/  8 1029.9F
YORK RVR RNG VA  0242   41      40/  5/  6 1029.0R
YORKTOWN VA      0242   41 42   50/  2/  3 1029.3S
JAMESTOWN VA     0250   41      CALM  /  2   N/A
DOMINION TERM VA 0242   41     130/  3/  3 1029.8R
KIPTOPEKE VA     0248      43   50/  3/  5   N/A
CHES BAY BRIDGE  0242   40 42   60/  6/  8 1029.3R
CAPE HENRY VA    0242   41      50/  4/  5   N/A
WILLOUBY STN VA  0242   41      70/  4/  5 1030.4S
S CRANEY ISL VA  0242   40      90/  2/  4 1029.4S
CAPE HENRY BUOY  0242      48                N/A     3/ 6
OFFSHORE WE BUOY 0251      49                N/A     3/11   2/11
64NM E OF VA BCH 0250   49 64   10/ 12/ 17 1028.5R   5/ 6   3/ 6
DUCK PIER NC     0242   44 44   10/  9/ 10 1028.8R
44100 DUCK FRF   0235      46                N/A     4/ 6   2/11
44056 DUCK FRF   0230      45                N/A     4/ 5   2/11
OREGON INLET NC  0242   43 50  360/  7/ 11 1028.9R
HATTERAS NC      0248      54   10/ 16/ 18 1027.9R
DIAMOND SHLS NC  0250   53 73   20/ 16/ 17 1027.7R   5/ 6   3/ 8
CAPE LOOKOUT NC  0200   47      10/ 13/ 16 1027.7S
$$



USA.gov is the U.S. government's official web portal to all federal, state and local government web resources and services.